User: anonymous   Login
Location: Caltech
(34.1382°N, 118.1253°W)
Time: 13:05:56
(UTC-07:00)
Language:

Lacrosse 5 rocket - Orbit

View from above orbital plane
View from above orbital plane
View from above satellite
View from above satellite

Ground track
Ground track

The orbit data is extracted from the following two-line orbital elements,

1 28647U 05016B   16201.05687002 0.00001100  00000-0  66152-4 0    06
2 28647  57.0030 287.7489 0120921  84.2335 275.7664 15.04408360    07
Epoch (UTC): 19 July 2016 01:21:53
Eccentricity: 0.0120921
inclination: 57.0030°
perigee height: 469 km
apogee height: 637 km
right ascension of ascending node: 287.7489°
argument of perigee: 84.2335°
revolutions per day: 15.04408360
mean anomaly at epoch: 275.7664°
orbit number at epoch: 0

The dashed part of the orbit path shows where the satellite is in the earth's shadow,  

DLR